Regional Weather Roundup
Issued by NWS New Orleans/Baton Rouge, LA

Home | Current Version | Previous Version | Text Only | Print | Product List | Glossary On
Versions: 1 2 3 4 5 6 7 8 9 10 11 12 13 14 15 16 17 18 19 20 21 22 23 24 25 26 27 28 29 30 31 32 33 34 35 36 37 38 39 40 41 42 43 44 45 46 47 48 49 50
000
ASUS44 KLIX 020412
RWRLIX
NEW ORLEANS REGIONAL WEATHER ROUNDUP
NATIONAL WEATHER SERVICE NEW ORLEANS LA
1100 PM CDT WED JUL 01 2015

NOTE: "FAIR" INDICATES FEW OR NO CLOUDS BELOW 12,000 FEET WITH NO
      SIGNIFICANT WEATHER AND/OR OBSTRUCTIONS TO VISIBILITY.
      SKY/WX - SKY CONDITION AND SIGNIFICANT WEATHER.
      TMP - AIR TEMPERATURE.     DP    - DEWPOINT TEMPERATURE.
      RH  - RELATIVE HUMIDITY.   PRES  - PRESSURE.
      HI  - HEAT INDEX.          WCI   - WIND CHILL INDEX.

*  THESE STATIONS ARE NOT NWS OR FAA STATIONS AND ARE NOT UNDER
   NWS QUALITY CONTROL.

LAZ038-040-048-061>063-065>067-069-020500-
SOUTHEAST LOUISIANA

CITY           SKY/WX    TMP DP  RH WIND       PRES   REMARKS
N.O. AUDUBON   NOT AVBL
N.O. INTL ARPT CLOUDY    77  73  87 S6        30.09S
N.O. LAKEFRONT CLOUDY    80  73  79 S7        30.10R
N.O. DOWNTOWN*   N/A     79  72  78 S5        30.10S
RESERVE*         N/A     77  73  85 S3        30.10R
SLIDELL        MOCLDY    74  74 100 CALM      30.09R
BATON ROUGE    PTCLDY    73  72  96 CALM      30.10R
BOOTHVILLE     CLOUDY    79  73  82 SE3       30.11S
BELLE CHASSE   CLOUDY    74  71  91 NW3       30.10R
BOGALUSA*        N/A     73  70  88 CALM      30.11R
GALLIANO*      DRIZZLE   78  75  91 S5        30.10S
NEW ROADS*       N/A    N/A N/A N/A CALM      30.10R
GONZALES*        N/A     75  75 100 CALM      30.09R
HAMMOND*       PTCLDY    72  70  94 CALM      30.11R
HOUMA*         NOT AVBL
PORT FOURCHON* CLOUDY    84  77  79 SW8       30.11S

$$

MSZ070-080>082-020500-
SOUTHERN MISSISSIPPI

CITY           SKY/WX    TMP DP  RH WIND       PRES   REMARKS
MCCOMB         FOG       72  70  93 SW5       30.10R VSB 1/2
GULFPORT       CLOUDY    75  72  90 CALM      30.09R
BILOXI         CLOUDY    77  73  86 CALM      30.09S
PASCAGOULA     CLOUDY    73  72  96 CALM      30.09F

$$

COASTAL OBSERVATIONS
LAKE AND NEARSHORE STATIONS

STATION/POSITION TIME  TEMP    WIND        PRES    WAVE
                       AIR SEA DIR/SP/G            HT/PER
                 (UTC) (F)     (DEG/KT/KT) (MB)    (FT/S)
PASCAGOULA       0300   79     240/  7/  9 1018.6
WAVELAND YACHT   0300   77 83  310/  2/  4 1018.8
GRAND ISLE       0300   83 86  230/  2/  3 1019.3
SOUTHWEST PASS   0300   84 83  250/  4/  4 1020.2
NEW CANAL        0300   78 83  210/  2/  4 1018.1
SHELL BEACH      0300   76 83  170/  6/  8 1017.7

OFFSHORE STATIONS

STATION/POSITION TIME  TEMP    WIND        PRES    WAVE
                       AIR SEA DIR/SP/G            HT/PER
                 (UTC) (F)     (DEG/KT/KT) (MB)    (FT/S)
64 S DAUPHIN ISL 0350   82 85  310/  4/  4 1020.1    2/ 3

$$



USA.gov is the U.S. government's official web portal to all federal, state and local government web resources and services.